Vagabond Aaf / Yakim, WA

2:04 PM PST on December 14, 2017 (GMT -0800)
Vagabond Aaf / Yakim

Weather History for K1YT - February, 2014

Change the Weather History Date:

Monday, February 24, 2014

  Actual Average (KYKM) Record (KYKM)
Temperature  
Mean Temperature 32 °F -  
Max Temperature 35 °F 51 °F 68 °F (1986)
Min Temperature 30 °F 27 °F 9 °F (1993)
Degree Days  
Heating Degree Days 32    
Moisture  
Dew Point 27 °F    
Average Humidity 79    
Maximum Humidity 87    
Minimum Humidity 70    
Precipitation  
Precipitation 0.01 in - - ()
Sea Level Pressure  
Sea Level Pressure 30.18 in    
Wind  
Wind Speed 11 mph (East)    
Max Wind Speed 15 mph    
Max Gust Speed 21 mph    
Visibility 11 miles    
Events Rain , Snow    
Averages and records for this station are not official NWS values.
T = Trace of Precipitation, MM = Missing Value Source: NWS Daily Summary

Daily Weather History Graph

Daily Weather History Graph

Search for Another Location

Airport or City:

Trip Planner

Search our weather history database for the weather conditions in past years. The results will help you decide how hot, cold, wet, or windy it might be!

Date:

Astronomy

Feb. 24, 2014 Rise Set
Actual Time 6:50 AM PST 5:40 PM PST
Civil Twilight 6:19 AM PST 6:11 PM PST
Nautical Twilight 5:44 AM PST 6:46 PM PST
Astronomical Twilight 5:09 AM PST 7:21 PM PST
Moon 3:05 AM PST (2/24) 12:35 PM PST (2/24)
Length of Visible Light 11h 51m
Length of Day
10h 50m
Waning Crescent, 27% of the Moon is Illuminated
Feb 24
Waning Crescent
Mar 1
New
Mar 8
First Quarter
Mar 16
Full
Mar 23
Last Quarter

Hourly Weather History & Observations

Time (PST) Temp. Windchill Dew Point Humidity Pressure Visibility Wind Dir Wind Speed Gust Speed Precip Events Conditions
12:56 AM 32.7 °F 24.5 °F 28.2 °F 83% 30.09 in 12.0 mi East 10.4 mph 19.6 mph N/A   Overcast
1:56 AM 32.7 °F 23.4 °F 27.7 °F 82% 30.10 in 12.0 mi East 12.7 mph 17.3 mph N/A   Overcast
2:56 AM 32.4 °F 24.0 °F 27.9 °F 83% 30.11 in 12.0 mi East 10.4 mph - N/A   Overcast
3:56 AM 32.2 °F 22.3 °F 27.1 °F 82% 30.13 in 12.0 mi East 13.8 mph - N/A   Overcast
4:05 AM 32.0 °F 22.5 °F 26.6 °F 80% 30.13 in 12.0 mi East 12.7 mph - N/A Rain Light Rain
4:25 AM 32.0 °F 24.2 °F 26.6 °F 80% 30.14 in 12.0 mi East 9.2 mph - N/A Snow Light Snow
4:35 AM 32.0 °F 23.6 °F 26.6 °F 80% 30.15 in 10.0 mi East 10.4 mph - N/A Rain , Snow Light Rain Showers
4:56 AM 31.5 °F 22.9 °F 27.0 °F 83% 30.15 in 12.0 mi East 10.4 mph - N/A Rain Light Freezing Rain
4:59 AM 32.0 °F 24.2 °F 26.6 °F 80% 30.15 in 12.0 mi East 9.2 mph - N/A   Overcast
5:30 AM 32.0 °F 23.0 °F 26.6 °F 80% 30.16 in 12.0 mi East 11.5 mph - N/A   Overcast
5:56 AM 31.8 °F 24.6 °F 26.1 °F 79% 30.16 in 12.0 mi East 8.1 mph - N/A   Overcast
6:08 AM 32.0 °F 23.6 °F 26.6 °F 80% 30.16 in 12.0 mi East 10.4 mph - N/A Rain Light Rain
6:53 AM 30.2 °F 23.4 °F 26.6 °F 86% 30.17 in 6.0 mi East 6.9 mph - N/A Snow Light Snow Showers
6:56 AM 31.1 °F 23.1 °F 27.1 °F 85% 30.17 in 6.0 mi East 9.2 mph - N/A Snow Light Snow Showers
7:31 AM 30.2 °F 20.8 °F 26.6 °F 86% 30.18 in 5.0 mi East 11.5 mph - N/A Snow Light Snow Showers
7:56 AM 30.9 °F 22.8 °F 27.3 °F 86% 30.19 in 12.0 mi East 9.2 mph - N/A Snow Light Snow
8:08 AM 32.0 °F 24.2 °F 26.6 °F 80% 30.19 in 12.0 mi East 9.2 mph - N/A   Overcast
8:16 AM 32.0 °F 24.2 °F 26.6 °F 80% 30.19 in 12.0 mi East 9.2 mph - N/A Rain Light Rain Showers
8:37 AM 32.0 °F 23.6 °F 26.6 °F 80% 30.20 in 12.0 mi East 10.4 mph - N/A   Overcast
8:56 AM 31.8 °F 22.3 °F 25.7 °F 78% 30.20 in 12.0 mi East 12.7 mph - N/A   Overcast
9:56 AM 32.5 °F 22.7 °F 26.2 °F 78% 30.20 in 12.0 mi East 13.8 mph - N/A   Overcast
10:46 AM 33.8 °F 24.3 °F 26.6 °F 75% 30.21 in 12.0 mi East 13.8 mph - N/A   Overcast
10:56 AM 33.1 °F 23.9 °F 27.0 °F 78% 30.21 in 12.0 mi East 12.7 mph 17.3 mph N/A   Overcast
11:50 AM 33.8 °F 24.8 °F 26.6 °F 75% 30.21 in 12.0 mi East 12.7 mph 20.7 mph N/A Rain Light Rain
11:56 AM 33.6 °F 23.7 °F 26.4 °F 75% 30.21 in 12.0 mi East 15.0 mph 20.7 mph N/A Rain Light Rain
12:56 PM 32.4 °F 22.5 °F 27.3 °F 82% 30.19 in 2.8 mi East 13.8 mph - N/A Snow Light Snow
1:01 PM 32.0 °F 22.5 °F 28.4 °F 87% 30.19 in 3.0 mi East 12.7 mph 19.6 mph N/A Snow Light Snow
1:51 PM 33.8 °F 23.9 °F 26.6 °F 75% 30.18 in 12.0 mi ENE 15.0 mph - N/A Snow Light Snow
1:56 PM 34.7 °F 25.9 °F 28.2 °F 77% 30.18 in 12.0 mi East 12.7 mph - 0.01 in Snow Light Snow
1:59 PM 35.6 °F 27.1 °F 26.6 °F 70% 30.18 in 12.0 mi East 12.7 mph 18.4 mph N/A   Overcast
2:49 PM 35.6 °F 28.0 °F 26.6 °F 70% 30.18 in 12.0 mi East 10.4 mph 18.4 mph N/A   Overcast
2:54 PM 35.6 °F 27.5 °F 26.6 °F 70% 30.18 in 12.0 mi East 11.5 mph 18.4 mph N/A   Overcast
2:56 PM 35.2 °F 27.1 °F 26.2 °F 70% 30.18 in 12.0 mi East 11.5 mph 18.4 mph N/A   Overcast
3:56 PM 34.0 °F 24.2 °F 25.5 °F 71% 30.18 in 12.0 mi East 15.0 mph - N/A   Overcast
4:56 PM 32.7 °F 23.0 °F 25.5 °F 75% 30.18 in 12.0 mi East 13.8 mph - N/A   Overcast
5:56 PM 31.8 °F 23.3 °F 26.2 °F 80% 30.19 in 12.0 mi East 10.4 mph - N/A   Overcast
6:15 PM 32.0 °F 23.0 °F 24.8 °F 75% 30.19 in 12.0 mi East 11.5 mph - N/A Rain Light Rain
6:40 PM 32.0 °F 23.6 °F 26.6 °F 80% 30.21 in 12.0 mi East 10.4 mph - N/A   Overcast
6:56 PM 31.8 °F 22.3 °F 26.4 °F 80% 30.21 in 12.0 mi East 12.7 mph - N/A   Overcast
7:56 PM 31.6 °F 23.7 °F 26.6 °F 82% 30.21 in 12.0 mi East 9.2 mph - N/A   Overcast
8:09 PM 32.0 °F 24.8 °F 26.6 °F 80% 30.21 in 12.0 mi East 8.1 mph - N/A Rain Light Rain
8:29 PM 32.0 °F 24.8 °F 26.6 °F 80% 30.22 in 12.0 mi East 8.1 mph - N/A   Overcast
8:46 PM 32.0 °F 24.2 °F 26.6 °F 80% 30.22 in 12.0 mi East 9.2 mph - N/A Rain Light Rain Showers
8:56 PM 31.5 °F 24.2 °F 26.6 °F 82% 30.23 in 12.0 mi East 8.1 mph - N/A Rain Light Freezing Rain
9:14 PM 32.0 °F 23.6 °F 26.6 °F 80% 30.23 in 12.0 mi East 10.4 mph - N/A   Overcast
9:56 PM 31.5 °F 25.8 °F 26.2 °F 81% 30.24 in 12.0 mi East 5.8 mph - N/A   Overcast
10:56 PM 31.6 °F 23.7 °F 25.7 °F 79% 30.25 in 12.0 mi ENE 9.2 mph - N/A   Overcast
11:56 PM 31.3 °F 23.3 °F 25.7 °F 80% 30.26 in 12.0 mi East 9.2 mph - N/A   Overcast